Gulfport, MS

10:47 PM CST on December 14, 2017 (GMT -0600)
Gulfport-Biloxi Regional

Weather History for KGPT - November, 2013

Change the Weather History Date:

Friday, November 15, 2013

  Actual Average Record
Temperature  
Mean Temperature 66 °F -  
Max Temperature 73 °F 70 °F 86 °F (1951)
Min Temperature 59 °F 50 °F 32 °F (2014)
Cooling Degree Days 1    
Growing Degree Days 16 (Base 50)    
Moisture  
Dew Point 60 °F    
Average Humidity 87    
Maximum Humidity 94    
Minimum Humidity 64    
Precipitation  
Precipitation 0.62 in - - ()
Sea Level Pressure  
Sea Level Pressure 30.05 in    
Wind  
Wind Speed 8 mph (ENE)    
Max Wind Speed 14 mph    
Max Gust Speed -    
Visibility 7 miles    
Events Rain    
Averages and records for this station are not official NWS values.
T = Trace of Precipitation, MM = Missing Value Source: NWS Daily Summary

Daily Weather History Graph

Daily Weather History Graph

Search for Another Location

Airport or City:

Trip Planner

Search our weather history database for the weather conditions in past years. The results will help you decide how hot, cold, wet, or windy it might be!

Date:

Astronomy

Nov. 15, 2013 Rise Set
Actual Time 6:22 AM CST 4:59 PM CST
Civil Twilight 5:56 AM CST 5:24 PM CST
Nautical Twilight 5:27 AM CST 5:53 PM CST
Astronomical Twilight 4:59 AM CST 6:22 PM CST
Moon 3:50 PM CST 4:25 AM CST
Length of Visible Light 11h 27m
Length of Day
10h 36m
Waxing Gibbous, 96% of the Moon is Illuminated
Nov 15
Waxing Gibbous
Nov 17
Full
Nov 25
Last Quarter
Dec 2
New
Dec 9
First Quarter

Hourly Weather History & Observations

Time (CST) Temp. Dew Point Humidity Pressure Visibility Wind Dir Wind Speed Gust Speed Precip Events Conditions
12:53 AM 61.0 °F 48.9 °F 64% 30.12 in 10.0 mi East 10.4 mph - N/A   Scattered Clouds
1:53 AM 61.0 °F 50.0 °F 67% 30.11 in 10.0 mi ENE 8.1 mph - N/A   Overcast
2:12 AM 60.8 °F 50.0 °F 68% 30.11 in 10.0 mi ENE 6.9 mph - N/A   Overcast
2:53 AM 60.1 °F 51.1 °F 72% 30.10 in 10.0 mi ENE 5.8 mph - 0.00 in Rain Light Rain
3:18 AM 59.0 °F 51.8 °F 77% 30.09 in 10.0 mi ENE 8.1 mph - 0.01 in Rain Light Rain
3:53 AM 59.0 °F 53.1 °F 81% 30.10 in 10.0 mi NE 5.8 mph - 0.01 in   Overcast
4:42 AM 60.8 °F 53.6 °F 77% 30.09 in 10.0 mi NE 4.6 mph - N/A   Overcast
4:53 AM 60.1 °F 54.0 °F 80% 30.08 in 10.0 mi ENE 5.8 mph - N/A   Overcast
5:53 AM 62.1 °F 55.9 °F 80% 30.07 in 10.0 mi East 10.4 mph - N/A   Scattered Clouds
6:53 AM 63.0 °F 57.9 °F 84% 30.07 in 10.0 mi East 8.1 mph - N/A   Mostly Cloudy
7:53 AM 64.0 °F 60.1 °F 87% 30.09 in 9.0 mi East 6.9 mph - 0.00 in Rain Light Rain
8:01 AM 64.4 °F 60.8 °F 88% 30.09 in 10.0 mi ENE 6.9 mph - 0.00 in   Overcast
8:53 AM 64.9 °F 61.0 °F 87% 30.09 in 10.0 mi East 11.5 mph - 0.01 in   Overcast
9:20 AM 66.2 °F 62.6 °F 88% 30.10 in 3.0 mi East 6.9 mph - 0.03 in Rain Light Rain
9:53 AM 66.0 °F 63.0 °F 90% 30.09 in 6.0 mi East 8.1 mph - 0.05 in Rain Light Rain
10:53 AM 69.1 °F 64.9 °F 87% 30.07 in 8.0 mi East 9.2 mph - 0.00 in   Overcast
11:53 AM 71.1 °F 66.9 °F 87% 30.04 in 10.0 mi East 12.7 mph - 0.00 in Rain Light Rain
12:53 PM 72.0 °F 66.9 °F 84% 30.01 in 10.0 mi ESE 13.8 mph - 0.00 in   Overcast
12:58 PM 73.4 °F 66.2 °F 78% 30.01 in 10.0 mi ESE 12.7 mph - N/A   Overcast
1:53 PM 71.1 °F 66.9 °F 87% 30.00 in 10.0 mi SE 8.1 mph - N/A   Overcast
2:53 PM 71.1 °F 68.0 °F 90% 29.99 in 4.0 mi East 6.9 mph - 0.03 in Rain Light Rain
3:39 PM 69.8 °F 66.2 °F 88% 30.00 in 2.5 mi North 10.4 mph - 0.14 in Rain Light Rain
3:53 PM 66.9 °F 64.0 °F 90% 30.00 in 2.0 mi North 11.5 mph - 0.17 in Rain Rain
4:04 PM 64.4 °F 62.6 °F 94% 30.00 in 3.0 mi North 11.5 mph - 0.01 in Rain Light Rain
4:53 PM 64.0 °F 61.0 °F 90% 30.00 in 6.0 mi NE 8.1 mph - 0.08 in Rain Light Rain
5:30 PM 62.6 °F 60.8 °F 94% 30.01 in 10.0 mi NE 9.2 mph - 0.00 in   Overcast
5:53 PM 63.0 °F 61.0 °F 93% 30.02 in 10.0 mi NE 8.1 mph - 0.00 in   Overcast
6:34 PM 62.6 °F 60.8 °F 94% 30.03 in 10.0 mi NE 8.1 mph - N/A   Overcast
6:53 PM 63.0 °F 61.0 °F 93% 30.03 in 8.0 mi NE 6.9 mph - N/A   Overcast
7:24 PM 62.6 °F 60.8 °F 94% 30.04 in 2.5 mi NE 4.6 mph - 0.02 in Rain Light Rain
7:33 PM 62.6 °F 60.8 °F 94% 30.04 in 1.5 mi NE 4.6 mph - 0.05 in Rain Rain
7:46 PM 62.6 °F 60.8 °F 94% 30.04 in 2.0 mi ENE 5.8 mph - 0.07 in Rain Light Rain
7:53 PM 63.0 °F 61.0 °F 93% 30.04 in 1.8 mi ENE 5.8 mph - 0.09 in Rain Rain
8:37 PM 62.6 °F 60.8 °F 94% 30.05 in 2.0 mi NE 3.5 mph - 0.11 in Rain Light Rain
8:50 PM 62.6 °F 60.8 °F 94% 30.05 in 2.5 mi ENE 3.5 mph - 0.13 in Rain Light Rain
8:53 PM 63.0 °F 61.0 °F 93% 30.05 in 3.0 mi ENE 3.5 mph - 0.13 in Rain Light Rain
9:53 PM 63.0 °F 61.0 °F 93% 30.06 in 3.0 mi NNE 3.5 mph - 0.03 in Rain Light Rain
10:53 PM 63.0 °F 61.0 °F 93% 30.05 in 5.0 mi NE 3.5 mph - 0.01 in Rain Light Rain
11:13 PM 62.6 °F 60.8 °F 94% 30.05 in 4.0 mi NE 4.6 mph - 0.01 in Rain Light Rain
11:53 PM 63.0 °F 61.0 °F 93% 30.04 in 6.0 mi NE 3.5 mph - 0.01 in   Overcast